Weather observations for the past three days for
Wheeler Air Force Base / Oahu
Imperial (Metric)
Date Time (hst) Wind (mph) Vis. (mi.) Weather Sky Cond. Temperature (ºF) Relative Humidity Wind Chill (°F) Heat Index (°F) Pressure Precipitation (in)
Air Dwpt 6 hour altimeter (in) sea level (mb) 1 hr 3 hr 6 hr
Max. Min.
19 10:55 E 15 10.00 Overcast SCT026 BKN047 OVC060 79.9 65.7 62% 82 30.1 1018.3
19 09:55 E 10 10.00 Partly Cloudy FEW020 SCT039 SCT048 77.9 66 67% 80 30.1 1018.3
19 08:55 NE 6 10.00 Mostly Cloudy BKN045 BKN055 76.1 66 71% 78 30.1 1018.3
19 07:55 NW 6 10.00 Mostly Cloudy FEW021 SCT027 BKN055 72.1 64.6 73.2 66.2 77% 30.1 1018.3
19 06:55 W 8 10.00 Mostly Cloudy BKN050 70 63.9 81% 30.08 1017.7
19 05:55 NW 6 10.00 A Few Clouds FEW048 67.1 62.4 85% 30.06 1017.0
19 04:55 NW 5 10.00 A Few Clouds FEW050 68.9 62.4 80% 30.06 1016.9
19 03:55 NW 7 10.00 Fair CLR 69.4 63 80% 30.07 1017.3
19 02:55 NW 5 10.00 Partly Cloudy SCT045 67.3 61.9 83% 30.07 1017.3
19 01:55 NW 6 10.00 Partly Cloudy SCT045 66.9 62.6 75.2 66 86% 30.07 1017.3
19 00:55 NW 5 10.00 Fair CLR 66.2 61.9 86% 30.09 1018.0
18 23:55 NW 3 10.00 Fair CLR 67.6 63 85% 30.1 1018.3
18 22:55 NW 3 10.00 Fair CLR 67.1 62.8 86% 30.11 1018.7
18 21:55 N 5 10.00 Fair CLR 73 63.5 72% 30.11 1018.6
18 20:55 NE 6 10.00 Fair CLR 74.3 63.5 69% 30.1 1018.3
18 19:55 N 7 10.00 Partly Cloudy FEW030 SCT039 75.4 64 83.8 75.2 68% 77 30.09 1018.0
18 18:55 NE 9 10.00 Partly Cloudy SCT033 76.5 62.4 62% 78 30.07 1017.3
18 17:55 E 8 10.00 Partly Cloudy SCT032 78.4 61.9 57% 80 30.06 1016.9
18 16:55 E 10 10.00 Fair CLR 79.7 62.6 56% 81 30.05 1016.6
18 15:55 E 12 10.00 Fair CLR 81.1 60.6 50% 82 30.05 1016.6
18 14:55 E 10 10.00 Fair CLR 81.7 59.4 47% 82 30.05 1016.6
18 13:55 NE 12 G 17 10.00 Fair CLR 82.8 60.4 83.7 75.4 47% 83 30.06 1016.9
18 12:55 E 5 10.00 Mostly Cloudy FEW100 FEW130 SCT150 SCT170 BKN200 82.2 59.4 46% 82 30.08 1017.6
18 11:55 E 5 10.00 A Few Clouds FEW040 79.5 60.3 52% 81 30.09 1018.0
18 10:55 NE 5 10.00 Partly Cloudy SCT042 78.8 62.8 58% 80 30.1 1018.3
18 09:55 NE 5 10.00 Partly Cloudy SCT035 SCT043 77.4 62.4 60% 79 30.11 1018.6
18 08:55 E 3 10.00 A Few Clouds FEW031 77.2 61.7 59% 79 30.1 1018.3
18 07:55 NE 5 10.00 Fair CLR 75.2 63.5 75.2 68.2 67% 77 30.1 1018.3
18 06:55 Calm 10.00 A Few Clouds FEW042 69.4 65.1 86% 30.09 1018.0
18 05:55 Calm 10.00 Partly Cloudy SCT042 70.2 64.8 83% 30.07 1017.3
18 04:55 E 6 10.00 Overcast FEW007 SCT014 OVC022 71.4 66.4 84% 30.06 1016.9
18 03:55 NW 3 10.00 Mostly Cloudy SCT026 BKN034 69.3 64.6 85% 30.05 1016.6
18 02:55 Calm 10.00 Overcast BKN027 OVC036 70 64.9 84% 30.04 1016.3
18 01:55 NW 5 10.00 Mostly Cloudy FEW023 BKN033 BKN041 68.2 63.5 74.8 67.3 85% 30.05 1016.6
18 00:55 NW 5 10.00 Mostly Cloudy BKN028 BKN035 68.2 63.5 85% 30.07 1017.3
17 23:55 NW 6 10.00 Mostly Cloudy BKN033 67.8 63.1 85% 30.09 1018.0
17 22:55 NW 3 10.00 Fair CLR 71.6 64 77% 30.1 1018.3
17 21:55 N 3 10.00 Fair CLR 73.4 63.9 72% 30.1 1018.3
17 20:55 N 3 10.00 Fair CLR 73.8 63.7 71% 30.08 1017.6
17 19:55 NE 5 10.00 Fair CLR 75 63.3 82.9 75 67% 77 30.07 1017.3
17 18:55 NE 9 10.00 Partly Cloudy SCT030 76.1 62.1 62% 78 30.06 1016.9
17 17:55 NE 12 10.00 Partly Cloudy SCT033 79.3 62.8 57% 81 30.05 1016.6
17 16:55 NE 14 G 20 10.00 A Few Clouds FEW038 79.2 61 54% 80 30.04 1016.3
17 15:55 NE 17 10.00 A Few Clouds FEW037 81.1 60.6 50% 82 30.05 1016.6
17 14:55 NE 16 G 22 10.00 Fair CLR 82 59.7 47% 82 30.06 1016.9
17 13:55 NE 8 G 20 10.00 Fair CLR 82.9 60.6 83.3 75.2 47% 83 30.07 1017.2
17 12:55 NE 9 G 18 10.00 Overcast BKN039 BKN047 BKN085 BKN110 OVC150 81.3 60.8 50% 82 30.08 1017.6
17 11:55 NE 12 G 18 10.00 Mostly Cloudy BKN034 BKN042 81.9 61.9 51% 83 30.09 1017.9
17 10:55 NE 10 10.00 Partly Cloudy SCT032 80.1 63.3 57% 82 30.1 1018.3
17 09:55 E 13 G 17 10.00 Overcast BKN027 OVC036 76.5 64.2 66% 78 30.11 1018.6
17 08:55 E 7 10.00 Overcast BKN030 OVC037 77 63 62% 79 30.1 1018.3
17 07:55 NE 3 10.00 A Few Clouds FEW027 75.4 64.9 75.4 70.2 70% 77 30.1 1018.3
17 04:55 Calm 10.00 Overcast SCT020 BKN027 OVC039 72.5 64.8 77% 30.06 1016.9
17 03:55 NE 7 10.00 Overcast FEW011 SCT023 BKN029 OVC038 73.6 64.4 73% 30.05 1016.6
17 02:55 Calm 10.00 Partly Cloudy FEW023 SCT035 71.6 64.4 78% 30.06 1016.9
17 01:55 NW 5 10.00 Mostly Cloudy SCT028 BKN039 72.7 64.6 75.4 72.5 76% 30.07 1017.2
17 00:55 N 6 10.00 Partly Cloudy FEW029 SCT037 73.8 64.9 74% 30.08 1017.6
16 23:55 N 6 10.00 Partly Cloudy SCT032 SCT042 74.1 64 71% 30.1 1018.3
16 22:55 NE 5 10.00 Mostly Cloudy BKN040 74.7 63.9 69% 30.11 1018.6
16 21:55 Calm 10.00 Overcast OVC035 74.7 64.6 71% 30.11 1018.6
16 20:55 N 7 10.00 Overcast SCT027 OVC034 75 64.9 71% 77 30.1 1018.3
16 19:55 NE 7 10.00 Mostly Cloudy BKN022 BKN037 75.2 65.5 83.7 75 72% 77 30.09 1018.0
16 18:55 NE 6 10.00 Overcast BKN022 OVC034 75.6 65.5 71% 77 30.07 1017.3
16 17:55 NE 7 10.00 Overcast SCT024 BKN030 OVC037 76.5 65.5 69% 78 30.06 1016.9
16 16:55 NE 10 10.00 Overcast BKN027 OVC037 77.9 64.2 63% 80 30.05 1016.6
16 15:55 E 13 G 22 10.00 Partly Cloudy SCT036 80.4 62.2 54% 82 30.05 1016.6
16 14:55 NE 14 G 21 10.00 Partly Cloudy SCT035 82.4 64 54% 84 30.06 1016.8
16 13:55 NE 20 10.00 Partly Cloudy SCT035 82.6 62.1 82.9 75.9 50% 83 30.07 1017.2
16 12:55 E 16 G 21 10.00 Overcast BKN035 OVC042 80.8 62.6 54% 82 30.08 1017.6
16 11:55 E 8 10.00 Overcast OVC033 79.3 63.3 58% 81 30.09 1017.9
Date Time (hst) Wind (mph) Vis. (mi.) Weather Sky Cond. Air Dwpt Max. Min. Relative Humidity Wind Chill (°F) Heat Index (°F) altimeter (in) sea level (mb) 1 hr 3 hr 6 hr
6 hour
Temperature (ºF) Pressure Precipitation (in)